Regional Weather Roundup
Issued by NWS

Home | Current Version | Previous Version | Graphics & Text | Print | Product List | Glossary On
Versions: 1 2 3 4 5 6 7 8 9 10 11 12 13 14 15 16 17 18 19 20 21 22 23 24 25 26 27 28 29 30 31 32 33 34 35 36 37 38 39 40 41 42 43 44 45 46 47 48 49 50
448
ASUS43 KBIS 190602
RWRND

NORTH DAKOTA REGIONAL WEATHER ROUNDUP
NATIONAL WEATHER SERVICE BISMARCK ND
100 AM CDT SAT AUG 19 2017

NOTE: "FAIR" INDICATES FEW OR NO CLOUDS BELOW 12,000 FEET WITH NO
SIGNIFICANT WEATHER AND/OR OBSTRUCTIONS TO VISIBILITY.


NDZ001>003-009>011-017-190700-
NORTHWEST NORTH DAKOTA

CITY           SKY/WX    TMP DP  RH WIND       PRES   REMARKS
WILLISTON      CLEAR     69  54  58 S5        29.84F
6HR MIN TEMP:  67; 6HR MAX TEMP:  83;

MINOT          CLEAR     65  52  62 S6        29.85S
MINOT AFB      CLEAR     59  52  77 S6        29.83F
$$

NDZ018>021-031>035-040>046-190700-
SOUTHWEST NORTH DAKOTA

CITY           SKY/WX    TMP DP  RH WIND       PRES   REMARKS
BISMARCK       CLEAR     61  55  81 CALM      29.91S
6HR MIN TEMP:  60; 6HR MAX TEMP:  81;

DICKINSON      CLEAR     62  53  72 S10       29.89F
GARRISON         N/A     60  55  83 S3        29.88F
6HR MIN TEMP:  60; 6HR MAX TEMP:  79;

HETTINGER ARPT CLEAR     64  51  62 SE10      29.94S
$$

NDZ004>008-012>016-024-026-027-054-190700-
NORTHEAST NORTH DAKOTA

CITY           SKY/WX    TMP DP  RH WIND       PRES   REMARKS
GRAND FORKS    CLEAR     61  58  90 SW3       29.84S
GRND FRKS AFB  CLEAR     57  56  96 SW5       29.86R
DEVILS LAKE    CLEAR     59  56  89 CALM      29.88S
$$

NDZ022-023-025-028>030-036>039-047>053-190700-
SOUTHEAST NORTH DAKOTA

CITY           SKY/WX    TMP DP  RH WIND       PRES   REMARKS
FARGO          CLEAR     65  61  87 SW7       29.88S
6HR MIN TEMP:  63; 6HR MAX TEMP:  78;

JAMESTOWN      CLEAR     60  56  86 SW7       29.90S
$$





USA.gov is the U.S. government's official web portal to all federal, state and local government web resources and services.